�������l�o���
Date,Time,MP-1(��Sv/h),MP-2(��Sv/h),MP-3(��Sv/h),MP-4(��Sv/h),MP-5(��Sv/h),MP-6(��Sv/h),MP-7(��Sv/h),MP-8(��Sv/h),����,����(m/s),���J
2019/08/07,00:00,0.768,1.099,0.753,1.329,0.983,0.435,0.752,0.708,�k�k��,5.0,��
2019/08/07,00:10,0.770,1.101,0.753,1.329,0.984,0.433,0.751,0.710,�k�k��,5.2,��
2019/08/07,00:20,0.770,1.100,0.756,1.331,0.985,0.433,0.751,0.709,�k�k��,5.4,��
2019/08/07,00:30,0.770,1.098,0.754,1.329,0.986,0.433,0.751,0.710,�k�k��,6.2,��
2019/08/07,00:40,0.769,1.100,0.752,1.330,0.984,0.433,0.752,0.709,�k�k��,6.8,��
2019/08/07,00:50,0.769,1.101,0.754,1.330,0.984,0.433,0.753,0.710,�k�k��,6.6,��
2019/08/07,01:00,0.769,1.098,0.753,1.329,0.984,0.432,0.750,0.709,�k�k��,7.2,��
2019/08/07,01:10,0.769,1.098,0.753,1.330,0.984,0.433,0.752,0.709,�k�k��,6.6,��
2019/08/07,01:20,0.768,1.100,0.756,1.331,0.982,0.431,0.751,0.706,�k�k��,6.1,��
2019/08/07,01:30,0.768,1.097,0.752,1.331,0.982,0.432,0.751,0.709,�k�k��,7.0,��
2019/08/07,01:40,0.767,1.099,0.753,1.329,0.982,0.432,0.752,0.708,�k�k��,6.3,��
2019/08/07,01:50,0.767,1.100,0.753,1.332,0.985,0.432,0.751,0.708,�k�k��,4.9,��
2019/08/07,02:00,0.769,1.098,0.753,1.330,0.982,0.432,0.751,0.708,�k�k��,4.8,��
2019/08/07,02:10,0.765,1.097,0.753,1.330,0.983,0.432,0.751,0.708,�k�k��,4.5,��
2019/08/07,02:20,0.768,1.097,0.753,1.328,0.982,0.431,0.751,0.709,�k,4.5,��
2019/08/07,02:30,0.770,1.097,0.752,1.330,0.983,0.432,0.751,0.709,�k�k��,5.0,��
2019/08/07,02:40,0.768,1.097,0.753,1.330,0.983,0.432,0.750,0.709,�k,3.2,��
2019/08/07,02:50,0.767,1.096,0.751,1.328,0.986,0.433,0.750,0.708,�k,3.4,��
2019/08/07,03:00,0.767,1.097,0.751,1.328,0.982,0.431,0.750,0.709,�k,3.5,��
2019/08/07,03:10,0.765,1.098,0.753,1.328,0.982,0.431,0.751,0.709,�k�k��,4.1,��
2019/08/07,03:20,0.766,1.099,0.753,1.329,0.981,0.430,0.750,0.708,�k�k��,4.4,��
2019/08/07,03:30,0.765,1.099,0.754,1.328,0.983,0.430,0.751,0.709,�k�k��,4.1,��
2019/08/07,03:40,0.766,1.096,0.753,1.329,0.982,0.431,0.750,0.709,�k�k��,3.2,�L
2019/08/07,03:50,0.765,1.095,0.751,1.327,0.982,0.430,0.750,0.708,�k�k��,3.9,�L
2019/08/07,04:00,0.767,1.098,0.751,1.329,0.982,0.429,0.749,0.707,�k�k��,4.2,��
2019/08/07,04:10,0.767,1.098,0.752,1.330,0.981,0.430,0.751,0.707,�k�k��,3.9,�L
2019/08/07,04:20,0.765,1.097,0.753,1.327,0.982,0.430,0.752,0.709,�k�k��,4.3,��
2019/08/07,04:30,0.766,1.096,0.753,1.327,0.983,0.430,0.750,0.707,�k��,4.5,��
2019/08/07,04:40,0.765,1.097,0.753,1.330,0.980,0.432,0.749,0.709,�k�k��,3.8,��
2019/08/07,04:50,0.766,1.097,0.752,1.330,0.981,0.432,0.751,0.708,�k�k��,3.0,��
2019/08/07,05:00,0.768,1.098,0.752,1.331,0.985,0.430,0.751,0.707,�k�k��,3.1,��
2019/08/07,05:10,0.766,1.096,0.751,1.330,0.983,0.431,0.750,0.709,�k�k��,4.0,��
2019/08/07,05:20,0.766,1.097,0.751,1.329,0.983,0.430,0.750,0.709,�k�k��,4.2,��
2019/08/07,05:30,0.765,1.099,0.750,1.329,0.981,0.430,0.749,0.706,�k�k��,3.5,��
2019/08/07,05:40,0.766,1.098,0.752,1.328,0.981,0.431,0.750,0.709,�k�k��,3.7,��
2019/08/07,05:50,0.767,1.097,0.753,1.328,0.983,0.429,0.752,0.708,�k�k��,2.3,��
2019/08/07,06:00,0.766,1.098,0.751,1.328,0.982,0.431,0.750,0.708,�k�k��,3.0,��
2019/08/07,06:10,0.767,1.098,0.752,1.328,0.982,0.430,0.751,0.708,�k�k��,2.6,��
2019/08/07,06:20,0.767,1.098,0.752,1.326,0.984,0.430,0.750,0.709,�k,2.0,��
2019/08/07,06:30,0.767,1.098,0.750,1.329,0.983,0.430,0.750,0.707,�k,2.6,��
2019/08/07,06:40,0.768,1.097,0.750,1.328,0.982,0.432,0.751,0.709,�k�k��,2.6,��
2019/08/07,06:50,0.765,1.097,0.751,1.329,0.981,0.431,0.748,0.710,�k�k��,2.6,��
2019/08/07,07:00,0.767,1.096,0.751,1.330,0.982,0.429,0.752,0.709,�k�k��,2.5,��
2019/08/07,07:10,0.765,1.099,0.753,1.328,0.983,0.430,0.751,0.708,�k�k��,2.0,��
2019/08/07,07:20,0.766,1.096,0.750,1.327,0.983,0.431,0.751,0.710,�k,2.5,��
2019/08/07,07:30,0.767,1.095,0.751,1.327,0.982,0.430,0.750,0.709,�k,2.5,��
2019/08/07,07:40,0.765,1.095,0.752,1.329,0.985,0.430,0.749,0.709,�k,2.3,��
2019/08/07,07:50,0.769,1.096,0.753,1.329,0.984,0.430,0.750,0.708,�k,2.6,��
2019/08/07,08:00,0.768,1.096,0.754,1.330,0.983,0.430,0.750,0.708,�k,2.9,��
2019/08/07,08:10,0.767,1.094,0.751,1.328,0.984,0.431,0.750,0.708,�k�k��,3.4,��
2019/08/07,08:20,0.767,1.097,0.752,1.329,0.982,0.430,0.751,0.708,�k�k��,3.8,��
2019/08/07,08:30,0.767,1.094,0.750,1.330,0.984,0.431,0.751,0.709,�k�k��,3.5,��
2019/08/07,08:40,0.768,1.096,0.753,1.330,0.984,0.433,0.751,0.710,�k�k��,3.3,��
2019/08/07,08:50,0.767,1.096,0.749,1.329,0.986,0.431,0.751,0.710,�k�k��,2.9,��
2019/08/07,09:00,0.769,1.095,0.755,1.328,0.984,0.432,0.752,0.709,�k�k��,2.6,��
2019/08/07,09:10,0.767,1.094,0.751,1.330,0.985,0.432,0.753,0.709,�k��,2.3,��
2019/08/07,09:20,0.769,1.097,0.753,1.327,0.984,0.432,0.751,0.709,�k��,2.5,��
2019/08/07,09:30,0.767,1.096,0.752,1.329,0.985,0.431,0.752,0.711,���k��,2.0,��
2019/08/07,09:40,0.767,1.095,0.752,1.328,0.986,0.432,0.751,0.711,���k��,1.7,��
2019/08/07,09:50,0.770,1.097,0.751,1.331,0.988,0.433,0.750,0.711,�k��,2.2,��
2019/08/07,10:00,0.770,1.094,0.749,1.331,0.984,0.433,0.752,0.709,���k��,1.7,��
2019/08/07,10:10,0.768,1.095,0.751,1.330,0.986,0.431,0.752,0.709,�k��,2.2,��
2019/08/07,10:20,0.768,1.097,0.750,1.331,0.986,0.433,0.748,0.711,�k��,2.0,��
2019/08/07,10:30,0.767,1.094,0.751,1.332,0.985,0.432,0.751,0.709,�k��,2.5,��
2019/08/07,10:40,0.768,1.094,0.750,1.331,0.985,0.432,0.750,0.707,�k�k��,2.6,��
2019/08/07,10:50,0.769,1.096,0.752,1.332,0.984,0.432,0.751,0.708,�k��,3.0,��
2019/08/07,11:00,0.769,1.096,0.750,1.330,0.984,0.431,0.749,0.707,�k�k��,3.0,��
2019/08/07,11:10,0.770,1.096,0.753,1.333,0.985,0.433,0.748,0.706,�k��,2.3,��
2019/08/07,11:20,0.767,1.096,0.749,1.332,0.985,0.431,0.750,0.707,�k��,2.6,��
2019/08/07,11:30,0.767,1.095,0.750,1.332,0.987,0.431,0.748,0.709,�k��,2.3,��
2019/08/07,11:40,0.769,1.099,0.750,1.331,0.986,0.432,0.749,0.708,��,2.3,��
2019/08/07,11:50,0.769,1.097,0.750,1.333,0.984,0.431,0.750,0.709,���k��,2.0,��
2019/08/07,12:00,0.770,1.097,0.752,1.330,0.985,0.429,0.751,0.709,��,1.7,��
2019/08/07,12:10,0.771,1.097,0.753,1.329,0.987,0.429,0.751,0.707,�k��,2.0,��
2019/08/07,12:20,0.768,1.101,0.752,1.332,0.987,0.431,0.752,0.709,���k��,2.3,��
2019/08/07,12:30,0.769,1.101,0.753,1.329,0.988,0.432,0.750,0.708,���k��,2.3,��
2019/08/07,12:40,0.768,1.100,0.755,1.330,0.986,0.430,0.750,0.707,��,3.0,��
2019/08/07,12:50,0.769,1.099,0.754,1.330,0.987,0.432,0.752,0.709,��,2.2,��
2019/08/07,13:00,0.769,1.101,0.752,1.331,0.987,0.431,0.751,0.708,��,2.3,��
2019/08/07,13:10,0.769,1.095,0.753,1.330,0.985,0.431,0.752,0.709,��,2.2,��
2019/08/07,13:20,0.767,1.097,0.752,1.330,0.988,0.431,0.752,0.708,���쓌,2.5,��
2019/08/07,13:30,0.769,1.098,0.754,1.332,0.990,0.432,0.751,0.708,��,2.5,��
2019/08/07,13:40,0.769,1.097,0.751,1.331,0.989,0.431,0.751,0.708,���쓌,2.0,��
2019/08/07,13:50,0.769,1.097,0.753,1.336,0.986,0.431,0.753,0.710,���쓌,2.3,��
2019/08/07,14:00,0.771,1.099,0.752,1.333,0.990,0.432,0.752,0.710,��,1.4,��
2019/08/07,14:10,0.769,1.098,0.753,1.334,0.988,0.431,0.751,0.709,��,2.6,��
2019/08/07,14:20,0.769,1.099,0.752,1.334,0.989,0.431,0.752,0.707,���쓌,2.8,��
2019/08/07,14:30,0.768,1.100,0.755,1.332,0.988,0.430,0.752,0.709,�쓌,2.9,��
2019/08/07,14:40,0.770,1.097,0.753,1.335,0.990,0.432,0.749,0.709,���쓌,2.6,��
2019/08/07,14:50,0.770,1.096,0.753,1.332,0.989,0.432,0.751,0.708,�쓌,2.6,��
2019/08/07,15:00,0.770,1.101,0.754,1.333,0.989,0.433,0.752,0.710,�쓌,3.7,��
2019/08/07,15:10,0.770,1.101,0.754,1.332,0.988,0.430,0.750,0.709,�쓌,3.1,��
2019/08/07,15:20,0.769,1.100,0.754,1.333,0.988,0.431,0.751,0.708,�쓌,2.6,��
2019/08/07,15:30,0.771,1.102,0.754,1.332,0.991,0.432,0.753,0.709,���쓌,2.6,��
2019/08/07,15:40,0.770,1.103,0.756,1.333,0.991,0.432,0.751,0.707,�쓌,2.5,��
2019/08/07,15:50,0.769,1.102,0.757,1.334,0.991,0.431,0.751,0.707,�쓌,2.6,��
2019/08/07,16:00,0.768,1.101,0.754,1.333,0.990,0.432,0.752,0.709,�쓌,2.8,��
2019/08/07,16:10,0.770,1.102,0.754,1.333,0.988,0.430,0.750,0.708,���쓌,2.6,��
2019/08/07,16:20,0.770,1.102,0.756,1.332,0.990,0.431,0.752,0.708,�쓌,3.6,��
2019/08/07,16:30,0.771,1.104,0.754,1.335,0.989,0.431,0.751,0.709,��쓌,3.4,��
2019/08/07,16:40,0.770,1.101,0.754,1.333,0.990,0.432,0.749,0.707,��쓌,3.8,��
2019/08/07,16:50,0.770,1.106,0.755,1.337,0.988,0.431,0.750,0.707,��쓌,3.0,��
2019/08/07,17:00,0.770,1.105,0.753,1.336,0.987,0.433,0.750,0.708,��쓌,3.4,��
2019/08/07,17:10,0.769,1.103,0.754,1.334,0.989,0.432,0.750,0.707,��쓌,3.4,��
2019/08/07,17:20,0.771,1.102,0.754,1.332,0.987,0.430,0.750,0.708,��쓌,3.4,��
2019/08/07,17:30,0.771,1.103,0.754,1.334,0.987,0.431,0.752,0.710,��쓌,3.5,��
2019/08/07,17:40,0.771,1.104,0.756,1.335,0.990,0.432,0.751,0.709,��쓌,3.9,��
2019/08/07,17:50,0.770,1.103,0.754,1.335,0.989,0.432,0.751,0.709,��,4.2,��
2019/08/07,18:00,0.771,1.102,0.756,1.335,0.988,0.432,0.751,0.709,��,4.0,��
2019/08/07,18:10,0.770,1.101,0.755,1.334,0.989,0.431,0.752,0.710,��,4.9,��
2019/08/07,18:20,0.769,1.102,0.756,1.333,0.989,0.431,0.752,0.708,��쓌,5.2,��
2019/08/07,18:30,0.771,1.103,0.755,1.333,0.990,0.431,0.751,0.707,��쓌,4.9,��
2019/08/07,18:40,0.771,1.099,0.754,1.334,0.991,0.433,0.751,0.708,��쓌,4.6,��
2019/08/07,18:50,0.768,1.101,0.755,1.334,0.990,0.433,0.751,0.710,��,4.6,��
2019/08/07,19:00,0.767,1.104,0.754,1.336,0.990,0.433,0.751,0.709,��,4.3,��
2019/08/07,19:10,0.768,1.103,0.755,1.334,0.990,0.433,0.751,0.711,��,3.8,��
2019/08/07,19:20,0.768,1.104,0.755,1.334,0.990,0.434,0.751,0.709,��쓌,3.8,��
2019/08/07,19:30,0.767,1.105,0.755,1.335,0.991,0.434,0.752,0.709,��,4.2,��
2019/08/07,19:40,0.768,1.104,0.755,1.336,0.991,0.433,0.751,0.710,��,3.6,��
2019/08/07,19:50,0.770,1.106,0.756,1.337,0.990,0.436,0.752,0.710,��,3.8,��
2019/08/07,20:00,0.769,1.106,0.755,1.335,0.990,0.435,0.752,0.707,��,4.6,��
2019/08/07,20:10,0.770,1.107,0.754,1.336,0.990,0.433,0.750,0.710,��,4.7,��
2019/08/07,20:20,0.771,1.103,0.756,1.334,0.988,0.434,0.752,0.709,��,5.2,��
2019/08/07,20:30,0.768,1.104,0.755,1.335,0.989,0.434,0.752,0.709,��,5.1,��
2019/08/07,20:40,0.768,1.103,0.754,1.336,0.990,0.434,0.751,0.709,��,3.3,��
2019/08/07,20:50,0.768,1.103,0.749,1.336,0.991,0.433,0.751,0.709,��,2.6,��
2019/08/07,21:00,0.767,1.104,0.749,1.337,0.989,0.434,0.752,0.710,��쐼,2.2,��
2019/08/07,21:10,0.768,1.102,0.748,1.335,0.987,0.435,0.751,0.709,��,1.1,��
2019/08/07,21:20,0.767,1.103,0.753,1.334,0.990,0.434,0.751,0.709,��쓌,1.9,��
2019/08/07,21:30,0.770,1.104,0.754,1.337,0.991,0.435,0.752,0.709,��,1.5,��
2019/08/07,21:40,0.769,1.102,0.755,1.337,0.991,0.434,0.752,0.710,��,1.7,��
2019/08/07,21:50,0.770,1.103,0.756,1.335,0.990,0.433,0.751,0.710,��,1.5,��
2019/08/07,22:00,0.769,1.102,0.755,1.337,0.989,0.435,0.752,0.710,��쓌,2.0,��
2019/08/07,22:10,0.767,1.107,0.757,1.336,0.991,0.433,0.753,0.710,��쓌,3.8,��
2019/08/07,22:20,0.770,1.104,0.756,1.337,0.988,0.434,0.752,0.709,��,4.6,��
2019/08/07,22:30,0.770,1.102,0.757,1.335,0.991,0.436,0.752,0.710,��,4.0,��
2019/08/07,22:40,0.770,1.102,0.757,1.337,0.992,0.434,0.751,0.710,��쐼,2.8,��
2019/08/07,22:50,0.769,1.104,0.758,1.337,0.990,0.434,0.750,0.709,��,2.3,��
2019/08/07,23:00,0.768,1.105,0.756,1.336,0.990,0.433,0.752,0.710,��,2.3,��
2019/08/07,23:10,0.769,1.105,0.756,1.337,0.989,0.433,0.751,0.708,��,2.3,��
2019/08/07,23:20,0.769,1.104,0.757,1.335,0.990,0.434,0.753,0.710,��,1.5,��
2019/08/07,23:30,0.770,1.104,0.755,1.336,0.989,0.435,0.751,0.712,��,1.5,��
2019/08/07,23:40,0.769,1.104,0.757,1.339,0.991,0.436,0.751,0.710,��쐼,1.4,��
2019/08/07,23:50,0.770,1.104,0.755,1.337,0.990,0.435,0.751,0.710,��쐼,1.1,��
